| time (UTC) | temp F | wind direction | speed MPH | gust MPH | rain 1hr in | rain 24hr in | rain mn in | humidity % | barometer mb |
| 20260904153805 | 64 | 268 | 8.0 | 9.0 | 0.00 | 0.02 | 0.02 | 93 | 1015.4 |
| 20260904152805 | 64 | 268 | 8.0 | 9.0 | 0.00 | 0.02 | 0.02 | 93 | 1014.9 |
| 20260904152306 | 64 | 268 | 8.0 | 9.0 | 0.00 | 0.02 | 0.02 | 93 | 1015.3 |
| 20260904151805 | 64 | 268 | 8.0 | 9.0 | 0.00 | 0.02 | 0.02 | 93 | 1015.4 |
| 20260904150808 | 64 | 268 | 8.0 | 9.0 | 0.00 | 0.02 | 0.02 | 93 | 1015.0 |
| 20260904150306 | 64 | 268 | 8.0 | 9.0 | 0.00 | 0.02 | 0.02 | 93 | 1014.8 |
| 20260904145804 | 64 | 268 | 8.0 | 9.0 | 0.00 | 0.02 | 0.02 | 93 | 1014.9 |
| 20260904144305 | 64 | 268 | 8.0 | 9.0 | 0.00 | 0.02 | 0.02 | 93 | 1014.8 |
| 20260904143306 | 64 | 268 | 8.0 | 9.0 | 0.00 | 0.02 | 0.02 | 93 | 1014.8 |
| 20260904142306 | 64 | 268 | 8.0 | 9.0 | 0.00 | 0.02 | 0.02 | 93 | 1014.6 |
| 20260904141806 | 64 | 268 | 8.0 | 9.0 | 0.00 | 0.02 | 0.02 | 93 | 1014.7 |
| 20260904135306 | 64 | 268 | 8.0 | 9.0 | 0.00 | 0.02 | 0.02 | 93 | 1014.7 |
| 20260904134805 | 64 | 268 | 8.0 | 9.0 | 0.01 | 0.02 | 0.02 | 93 | 1014.7 |
| 20260904134305 | 64 | 268 | 8.0 | 9.0 | 0.01 | 0.02 | 0.02 | 93 | 1014.8 |
| 20260904133806 | 64 | 268 | 8.0 | 9.0 | 0.01 | 0.02 | 0.02 | 93 | 1014.7 |
| 20260904132306 | 64 | 268 | 8.0 | 9.0 | 0.01 | 0.02 | 0.02 | 93 | 1014.9 |
| 20260904131305 | 64 | 268 | 8.0 | 9.0 | 0.01 | 0.02 | 0.02 | 93 | 1014.7 |
| 20260904130805 | 64 | 268 | 8.0 | 9.0 | 0.01 | 0.02 | 0.02 | 93 | 1014.4 |
| 20260904130305 | 64 | 268 | 8.0 | 9.0 | 0.01 | 0.02 | 0.02 | 93 | 1014.4 |
| 20260904125305 | 64 | 268 | 8.0 | 9.0 | 0.01 | 0.02 | 0.02 | 93 | 1014.2 |
| 20260904123804 | 64 | 268 | 8.0 | 9.0 | 0.00 | 0.01 | 0.01 | 93 | 1014.1 |
| 20260904122306 | 64 | 268 | 8.0 | 9.0 | 0.00 | 0.02 | 0.01 | 93 | 1014.0 |
| 20260904121804 | 64 | 268 | 8.0 | 9.0 | 0.00 | 0.02 | 0.01 | 93 | 1013.8 |
| 20260904115306 | 64 | 268 | 8.0 | 9.0 | 0.00 | 0.02 | 0.01 | 93 | 1013.7 |
| 20260904114804 | 64 | 268 | 8.0 | 9.0 | 0.00 | 0.02 | 0.01 | 93 | 1013.7 |
| 20260904114305 | 64 | 268 | 8.0 | 9.0 | 0.00 | 0.02 | 0.01 | 93 | 1013.7 |
| 20260904113805 | 64 | 268 | 8.0 | 9.0 | 0.00 | 0.02 | 0.01 | 93 | 1013.5 |
| 20260904111804 | 64 | 268 | 8.0 | 9.0 | 0.00 | 0.02 | 0.01 | 93 | 1013.5 |
| 20260904110307 | 64 | 268 | 8.0 | 9.0 | 0.00 | 0.02 | 0.01 | 93 | 1013.6 |
| 20260904105805 | 64 | 268 | 8.0 | 9.0 | 0.00 | 0.02 | 0.01 | 93 | 1013.4 |
| 20260904104304 | 64 | 268 | 8.0 | 9.0 | 0.00 | 0.02 | 0.01 | 93 | 1013.3 |
| 20260904103805 | 64 | 268 | 8.0 | 9.0 | 0.00 | 0.02 | 0.01 | 93 | 1013.2 |
| 20260904102804 | 64 | 268 | 8.0 | 9.0 | 0.00 | 0.02 | 0.01 | 93 | 1013.2 |
| 20260904101304 | 64 | 268 | 8.0 | 9.0 | 0.00 | 0.02 | 0.01 | 93 | 1012.9 |
| 20260904100304 | 64 | 268 | 8.0 | 9.0 | 0.00 | 0.02 | 0.01 | 93 | 1012.8 |
| 20260904095306 | 64 | 268 | 8.0 | 9.0 | 0.00 | 0.02 | 0.01 | 93 | 1013.1 |
| 20260904094804 | 64 | 268 | 8.0 | 9.0 | 0.00 | 0.02 | 0.01 | 93 | 1013.1 |
| 20260904094304 | 64 | 268 | 8.0 | 9.0 | 0.00 | 0.02 | 0.01 | 93 | 1013.1 |
| 20260904093804 | 64 | 268 | 8.0 | 9.0 | 0.00 | 0.02 | 0.01 | 93 | 1013.0 |
| 20260904092804 | 64 | 259 | 9.0 | 20.0 | 0.00 | 0.02 | 0.01 | 93 | 1013.0 |
| 20260904092306 | 64 | 265 | 9.0 | 16.0 | 0.00 | 0.02 | 0.01 | 93 | 1013.0 |
| 20260904090804 | 65 | 265 | 10.0 | 24.0 | 0.00 | 0.02 | 0.01 | 94 | 1012.8 |
| 20260904085306 | 66 | 237 | 10.0 | 22.0 | 0.00 | 0.02 | 0.01 | 94 | 1012.2 |
| 20260904084804 | 66 | 224 | 10.0 | 20.0 | 0.00 | 0.02 | 0.01 | 94 | 1012.0 |
| 20260904083304 | 66 | 224 | 6.0 | 18.0 | 0.00 | 0.02 | 0.01 | 94 | 1012.0 |
| 20260904081304 | 66 | 223 | 8.0 | 20.0 | 0.00 | 0.02 | 0.01 | 94 | 1011.8 |
| 20260904080804 | 66 | 227 | 6.0 | 15.0 | 0.00 | 0.02 | 0.01 | 94 | 1011.9 |
| 20260904075306 | 66 | 221 | 9.0 | 20.0 | 0.00 | 0.02 | 0.01 | 94 | 1011.9 |
| 20260904073304 | 66 | 246 | 7.0 | 21.0 | 0.00 | 0.02 | 0.01 | 95 | 1012.0 |
| 20260904072804 | 66 | 239 | 9.0 | 18.0 | 0.00 | 0.02 | 0.01 | 95 | 1011.8 |
| 20260904071304 | 66 | 241 | 8.0 | 22.0 | 0.00 | 0.02 | 0.01 | 95 | 1011.9 |
| 20260904070310 | 66 | 239 | 7.0 | 20.0 | 0.00 | 0.02 | 0.01 | 95 | 1012.0 |
| 20260904065804 | 65 | 241 | 10.0 | 20.0 | 0.00 | 0.02 | 0.01 | 95 | 1012.0 |
| 20260904065306 | 65 | 210 | 11.0 | 20.0 | 0.00 | 0.02 | 0.01 | 96 | 1012.2 |
| 20260904062306 | 65 | 230 | 9.0 | 20.0 | 0.00 | 0.02 | 0.01 | 96 | 1012.3 |
| 20260904061304 | 65 | 229 | 8.0 | 16.0 | 0.00 | 0.02 | 0.01 | 96 | 1012.2 |
| 20260904054304 | 66 | 233 | 13.0 | 26.0 | 0.00 | 0.02 | 0.01 | 96 | 1012.0 |
| 20260904052804 | 66 | 215 | 11.0 | 22.0 | 0.00 | 0.02 | 0.01 | 95 | 1012.0 |
| 20260904052307 | 66 | 238 | 9.0 | 20.0 | 0.00 | 0.02 | 0.01 | 95 | 1012.0 |
| 20260904050804 | 66 | 250 | 10.0 | 20.0 | 0.00 | 0.02 | 0.01 | 95 | 1012.0 |
| 20260904045306 | 66 | 232 | 10.0 | 23.0 | 0.00 | 0.02 | 0.01 | 95 | 1012.1 |
| 20260904043804 | 66 | 238 | 12.0 | 29.0 | 0.00 | 0.02 | 0.01 | 95 | 1012.0 |
| 20260904042805 | 66 | 217 | 9.0 | 21.0 | 0.00 | 0.02 | 0.01 | 94 | 1012.3 |
| 20260904041304 | 66 | 224 | 9.0 | 17.0 | 0.00 | 0.02 | 0.01 | 94 | 1012.8 |
| 20260904040804 | 66 | 227 | 11.0 | 21.0 | 0.00 | 0.02 | 0.01 | 94 | 1012.8 |
| 20260904040305 | 66 | 229 | 7.0 | 16.0 | 0.00 | 0.02 | 0.01 | 94 | 1012.9 |
| 20260904035804 | 66 | 226 | 8.0 | 18.0 | 0.00 | 0.02 | 0.01 | 94 | 1012.9 |
| 20260904035306 | 66 | 224 | 9.0 | 20.0 | 0.00 | 0.02 | 0.01 | 94 | 1013.1 |
| 20260904034305 | 66 | 247 | 10.0 | 20.0 | 0.00 | 0.02 | 0.01 | 94 | 1013.3 |
| 20260904033804 | 66 | 225 | 13.0 | 25.0 | 0.00 | 0.02 | 0.01 | 94 | 1013.3 |
| 20260904032804 | 66 | 236 | 8.0 | 23.0 | 0.00 | 0.02 | 0.01 | 94 | 1013.3 |
| 20260904032306 | 66 | 236 | 9.0 | 20.0 | 0.00 | 0.02 | 0.01 | 94 | 1013.2 |
| 20260904031804 | 66 | 216 | 10.0 | 21.0 | 0.00 | 0.02 | 0.01 | 94 | 1013.2 |
| 20260904030304 | 66 | 209 | 11.0 | 20.0 | 0.00 | 0.02 | 0.01 | 95 | 1013.2 |
| 20260904025804 | 66 | 228 | 9.0 | 23.0 | 0.00 | 0.02 | 0.01 | 95 | 1013.2 |
| 20260904025306 | 66 | 230 | 9.0 | 21.0 | 0.00 | 0.02 | 0.01 | 95 | 1013.4 |
| 20260904023805 | 66 | 221 | 9.0 | 20.0 | 0.00 | 0.02 | 0.01 | 95 | 1013.5 |
| 20260904023304 | 65 | 224 | 6.0 | 12.0 | 0.00 | 0.02 | 0.01 | 95 | 1013.7 |
| 20260904022306 | 65 | 233 | 6.0 | 14.0 | 0.00 | 0.02 | 0.01 | 95 | 1013.9 |
| 20260904020805 | 65 | 230 | 10.0 | 21.0 | 0.00 | 0.02 | 0.01 | 95 | 1014.0 |
| 20260904015805 | 65 | 215 | 9.0 | 20.0 | 0.00 | 0.02 | 0.01 | 95 | 1014.3 |
| 20260904015306 | 65 | 214 | 7.0 | 22.0 | 0.00 | 0.02 | 0.01 | 96 | 1014.3 |
| 20260904014804 | 65 | 226 | 10.0 | 26.0 | 0.00 | 0.02 | 0.01 | 96 | 1014.3 |
| 20260904013304 | 65 | 231 | 9.0 | 17.0 | 0.00 | 0.02 | 0.01 | 96 | 1014.5 |
| 20260904012804 | 65 | 215 | 10.0 | 17.0 | 0.00 | 0.02 | 0.01 | 96 | 1014.5 |
| 20260904012306 | 65 | 231 | 10.0 | 16.0 | 0.00 | 0.02 | 0.01 | 96 | 1014.4 |
| 20260904011804 | 65 | 224 | 9.0 | 21.0 | 0.00 | 0.02 | 0.01 | 96 | 1014.4 |
| 20260904010804 | 65 | 219 | 8.0 | 16.0 | 0.00 | 0.02 | 0.01 | 95 | 1014.6 |
| 20260904010304 | 65 | 221 | 7.0 | 15.0 | 0.01 | 0.02 | 0.01 | 95 | 1014.7 |
| 20260904005804 | 65 | 222 | 6.0 | 16.0 | 0.01 | 0.02 | 0.01 | 95 | 1014.7 |
| 20260904005306 | 65 | 231 | 9.0 | 17.0 | 0.01 | 0.02 | 0.01 | 95 | 1014.9 |
| 20260904004805 | 66 | 210 | 7.0 | 14.0 | 0.01 | 0.02 | 0.01 | 95 | 1014.9 |
| 20260904004304 | 66 | 196 | 7.0 | 13.0 | 0.01 | 0.02 | 0.01 | 95 | 1015.0 |
| 20260904002804 | 66 | 234 | 7.0 | 20.0 | 0.01 | 0.02 | 0.01 | 95 | 1015.1 |
| 20260904002306 | 65 | 216 | 6.0 | 14.0 | 0.01 | 0.02 | 0.01 | 95 | 1015.4 |
| 20260904001304 | 65 | 248 | 8.0 | 17.0 | 0.01 | 0.02 | 0.01 | 95 | 1015.6 |
| 20260904000304 | 65 | 200 | 5.0 | 15.0 | 0.00 | 0.01 | 0.00 | 94 | 1015.5 |
| 20260903235804 | 65 | 233 | 6.0 | 15.0 | 0.00 | 0.01 | 0.00 | 94 | 1015.5 |
| 20260903235305 | 65 | 225 | 6.0 | 17.0 | 0.00 | 0.01 | 0.00 | 94 | 1015.5 |
| 20260903234304 | 65 | 210 | 4.0 | 12.0 | 0.00 | 0.01 | 0.00 | 94 | 1015.5 |
| 20260903233805 | 65 | 214 | 6.0 | 14.0 | 0.00 | 0.01 | 0.00 | 94 | 1015.5 |
| 20260903232805 | 65 | 220 | 6.0 | 14.0 | 0.00 | 0.01 | 0.00 | 94 | 1015.7 |
| 20260903231804 | 65 | 190 | 3.0 | 8.0 | 0.00 | 0.01 | 0.00 | 93 | 1015.9 |
| 20260903225804 | 65 | 233 | 5.0 | 10.0 | 0.00 | 0.01 | 0.01 | 93 | 1016.0 |
| 20260903225306 | 65 | 215 | 5.0 | 12.0 | 0.00 | 0.01 | 0.01 | 93 | 1016.1 |
| 20260903224804 | 65 | 209 | 3.0 | 10.0 | 0.00 | 0.01 | 0.01 | 93 | 1016.1 |
| 20260903221304 | 66 | 218 | 5.0 | 15.0 | 0.00 | 0.01 | 0.01 | 93 | 1016.7 |
| 20260903220804 | 66 | 217 | 6.0 | 14.0 | 0.00 | 0.01 | 0.01 | 93 | 1016.7 |
| 20260903220304 | 66 | 213 | 5.0 | 12.0 | 0.00 | 0.01 | 0.01 | 93 | 1016.5 |
| 20260903215805 | 66 | 251 | 3.0 | 12.0 | 0.00 | 0.01 | 0.01 | 94 | 1016.5 |
| 20260903215306 | 66 | 206 | 5.0 | 14.0 | 0.00 | 0.01 | 0.01 | 94 | 1016.8 |
| 20260903214805 | 66 | 206 | 5.0 | 15.0 | 0.00 | 0.01 | 0.01 | 94 | 1016.8 |
| 20260903214304 | 66 | 228 | 5.0 | 8.0 | 0.00 | 0.01 | 0.01 | 94 | 1016.9 |
| 20260903213804 | 66 | 213 | 4.0 | 13.0 | 0.00 | 0.01 | 0.01 | 94 | 1016.9 |
| 20260903213304 | 66 | 209 | 5.0 | 10.0 | 0.00 | 0.01 | 0.01 | 94 | 1017.1 |
| 20260903212805 | 66 | 202 | 3.0 | 10.0 | 0.00 | 0.01 | 0.01 | 94 | 1017.1 |
| 20260903212306 | 66 | 204 | 6.0 | 13.0 | 0.00 | 0.01 | 0.01 | 94 | 1017.0 |
| 20260903205306 | 66 | 204 | 6.0 | 13.0 | 0.00 | 0.01 | 0.01 | 95 | 1016.9 |
| 20260903204804 | 66 | 228 | 5.0 | 9.0 | 0.00 | 0.01 | 0.01 | 95 | 1016.9 |
| 20260903204304 | 66 | 195 | 2.0 | 12.0 | 0.00 | 0.01 | 0.01 | 94 | 1016.9 |
| 20260903203804 | 66 | 222 | 4.0 | 12.0 | 0.00 | 0.01 | 0.01 | 94 | 1016.9 |
| 20260903202804 | 66 | 193 | 2.0 | 8.0 | 0.00 | 0.01 | 0.01 | 94 | 1016.9 |
| 20260903200804 | 66 | 210 | 5.0 | 10.0 | 0.00 | 0.01 | 0.01 | 94 | 1017.1 |
| 20260903195804 | 66 | 220 | 3.0 | 12.0 | 0.00 | 0.01 | 0.01 | 94 | 1017.2 |
| 20260903195306 | 66 | 246 | 5.0 | 13.0 | 0.00 | 0.01 | 0.01 | 94 | 1017.4 |
| 20260903192805 | 67 | 211 | 4.0 | 9.0 | 0.00 | 0.01 | 0.01 | 93 | 1017.3 |
| 20260903192306 | 67 | 216 | 3.0 | 12.0 | 0.00 | 0.01 | 0.01 | 93 | 1017.2 |
| 20260903191805 | 67 | 202 | 4.0 | 9.0 | 0.00 | 0.01 | 0.01 | 93 | 1017.2 |
| 20260903191304 | 67 | 212 | 3.0 | 9.0 | 0.00 | 0.01 | 0.01 | 93 | 1017.3 |
| 20260903190804 | 67 | 243 | 4.0 | 12.0 | 0.00 | 0.01 | 0.01 | 93 | 1017.3 |
| 20260903184304 | 67 | 192 | 6.0 | 12.0 | 0.00 | 0.01 | 0.01 | 92 | 1017.1 |
| 20260903183804 | 67 | 239 | 6.0 | 14.0 | 0.00 | 0.01 | 0.01 | 92 | 1017.1 |
| 20260903182804 | 68 | 227 | 5.0 | 13.0 | 0.00 | 0.01 | 0.01 | 91 | 1017.2 |
| 20260903182306 | 68 | 226 | 7.0 | 16.0 | 0.00 | 0.01 | 0.01 | 91 | 1017.3 |
| 20260903180804 | 68 | 224 | 7.0 | 18.0 | 0.00 | 0.01 | 0.01 | 91 | 1017.3 |
| 20260903174804 | 68 | 218 | 6.0 | 13.0 | 0.00 | 0.01 | 0.01 | 90 | 1017.2 |
| 20260903172805 | 69 | 237 | 7.0 | 18.0 | 0.00 | 0.01 | 0.01 | 90 | 1017.3 |
| 20260903172306 | 69 | 232 | 5.0 | 13.0 | 0.00 | 0.01 | 0.01 | 90 | 1017.2 |
| 20260903171804 | 69 | 210 | 5.0 | 13.0 | 0.00 | 0.01 | 0.01 | 90 | 1017.2 |
| 20260903165804 | 69 | 220 | 7.0 | 18.0 | 0.00 | 0.01 | 0.01 | 89 | 1017.3 |
| 20260903163804 | 70 | 218 | 3.0 | 9.0 | 0.00 | 0.01 | 0.01 | 89 | 1017.4 |
| 20260903162306 | 69 | 210 | 5.0 | 16.0 | 0.00 | 0.01 | 0.01 | 88 | 1017.5 |
| 20260903161304 | 70 | 211 | 8.0 | 15.0 | 0.00 | 0.01 | 0.01 | 87 | 1017.6 |
| 20260903160804 | 70 | 200 | 6.0 | 18.0 | 0.00 | 0.01 | 0.01 | 88 | 1017.6 |